Content
SEND FEEDBACK

Daily
Averages
Monthly
Summary
Venezuela

CUMANA, VENEZUELA


Home > South America > Venezuela
Elevation: 13 feet     Latitude: 10 27N     Longitude: 064 11W

WEATHER
 
SELECT A DAY
Number of Records: 40,599;   Date Range: 7/12/96 - 7/31/14
 
SHARE

PRINT THIS DATA

[ ← Previous Day ]
WEATHER ALMANAC - JANUARY 31, 2013
[ Next Day → ]
[ °C ]   °F
Weather ElementAverageHighLow
Temperature81 °F89.6 °F (1:30 pm)73.4 °F (4:30 am)
Dewpoint66.3 °F68 °F (7:30 am)62.6 °F (4:30 am)
Humidity60 %74 % (7:30 am)38 % (1:30 pm)
Barometer29.89 in29.95 in (9:30 am)29.83 in (5:30 pm)
Wind Speed13.3 mph31.1 mph (2:30 pm)
Weather ElementAverage
Visibility7.1 mi
Wind DirectionE (85.8 °)

Weather ElementTotal
Precipitation---
Cooling Degree Days16.5 (Base 65)
Growing Degree Days31.5 (Base 50)
Averaged from 19 records on January 31, 2013
WEATHER CONDITIONS BREAKOUT
WIND DIRECTION BREAKOUT
WEATHER BY HOUR - JANUARY 31, 2013
[ °C ]   °F
Local TimeTemperatureDewpointHumidityBarometerVisibilityWind DirectionWind SpeedGust SpeedPrecipitationEventsConditions
1:30 AM77.0 °F64.4 °F65 %29.92 inEast (90°)6.9 mphClear
4:30 AM73.4 °F62.6 °F69 %29.89 inEast (90°)4.6 mphClear
6:30 AM75.2 °F66.2 °F73 %29.92 inEast (90°)6.9 mphClear
7:30 AM76.0 °F68.0 °F69 %29.89 in12.0 miEast (90°)8.9 mph
7:30 AM77.0 °F68.0 °F74 %29.92 inEast (90°)8.1 mphClear
8:30 AM80.6 °F68.0 °F65 %29.92 inEast (90°)11.5 mphClear
9:30 AM82.4 °F68.0 °F62 %29.95 in6.2 miEast (90°)15.0 mphPartly Cloudy
10:30 AM84.2 °F68.0 °F58 %29.95 in6.2 miEast (90°)16.1 mphPartly Cloudy
11:30 AM86.0 °F68.0 °F55 %29.92 in6.2 miEast (90°)15.0 mphPartly Cloudy
1:30 PM89.6 °F66.2 °F46 %29.89 in6.2 miENE (70°)15.0 mphScattered Clouds
1:30 PM89.0 °F67.0 °F38 %29.86 in12.0 miENE (70°)15.7 mphMostly Cloudy
2:30 PM86.0 °F66.2 °F51 %29.86 in6.2 miEast (90°)31.1 mphScattered Clouds
3:30 PM84.2 °F68.0 °F58 %29.86 in6.2 miNE (50°)17.3 mphScattered Clouds
5:30 PM82.4 °F64.4 °F54 %29.83 in6.2 miEast (90°)15.0 mphScattered Clouds
6:30 PM82.4 °F62.6 °F51 %29.83 in6.2 miEast (90°)13.8 mphScattered Clouds
7:30 PM79.0 °F65.0 °F53 %29.83 in6.0 miEast (90°)11.2 mphPartly Cloudy
8:30 PM78.8 °F66.2 °F65 %29.86 in6.2 miEast (90°)15.0 mphPartly Cloudy
9:30 PM78.8 °F66.2 °F65 %29.89 in6.2 miEast (90°)13.8 mphPartly Cloudy
10:30 PM77.0 °F66.2 °F69 %29.89 inEast (90°)12.7 mphClear
Hourly data recorded from SVCU, located miles away from Cumana, Venezuela







STORIES FROM OUR PARTNERS